[[{"header":{"parameterUnit":"m.s-1","parameterCategory":1,"la1":30.2991,"la2":30.254,"lo1":-89.0895,"lo2":-89.0444,"dy":0.0017,"dx":0.0017,"nx":28,"ny":28,"refTime":"2025-04-21T09:00:00:Z","depth":0,"parameterNumber":2,"parameterNumberName":"U-component_of_WINDS"},"data":[0,0,0,0,0,0,0,0,0,0,0,0,0,0,0,0,0,0,0,0,0,0,0,0,0,0,0,0,0,0,0,0,0,0,0,0,0,0,0,0,0,0,0,0,0,0,0,0,0,0,0,0,0,0,0,0,0,0,-2.2942,-2.2942,0,-2.2958,-2.2958,-2.2958,-2.2935,-2.2934,-2.2933,-2.2932,-2.295,-2.2951,-2.2952,0,0,0,0,0,0,0,0,0,0,0,0,0,-2.2894,-2.2895,-2.2942,-2.2942,-2.2943,-2.2958,-2.2958,-2.2958,-2.2935,-2.2934,-2.2933,-2.2932,-2.2949,-2.2951,-2.2952,0,0,0,0,0,0,0,0,0,0,0,0,0,-2.2913,-2.2895,-2.2942,-2.2933,-2.2932,-2.2958,-2.2958,-2.2958,-2.2935,-2.2934,-2.2933,-2.2932,-2.2949,-2.295,-2.2952,-2.2988,0,0,-2.2958,-2.2959,0,0,0,0,0,0,0,0,-2.2912,-2.2915,-2.2934,-2.2933,-2.2933,-2.2943,-2.2947,-2.2968,-2.2936,-2.2934,-2.2932,-2.2931,-2.2948,-2.295,-2.2956,-2.2989,-2.2989,-2.2958,-2.2959,-2.296,-2.296,0,0,0,0,0,0,0,-2.2911,-2.2914,-2.2948,-2.2934,-2.2934,-2.2928,-2.293,-2.2951,-2.2948,-2.2934,-2.2932,-2.2935,-2.2948,-2.2954,-2.2956,-2.299,-2.2958,-2.296,-2.2961,-2.2961,-2.3053,-2.3054,0,0,0,0,0,0,-2.291,-2.2913,-2.2948,-2.2949,-2.2919,-2.293,-2.2932,-2.2941,-2.2948,-2.2947,-2.2936,-2.2933,-2.2952,-2.2954,-2.2957,-2.2998,-2.296,-2.2962,-2.2963,-2.3052,-2.3053,-2.3055,0,0,0,0,0,0,-2.2909,-2.2913,-2.2947,-2.293,-2.2934,-2.2932,-2.2943,-2.2942,-2.2948,-2.2949,-2.2948,-2.2942,-2.2951,-2.2954,-2.298,-2.2999,-2.2962,-2.2964,-2.305,-2.3052,-2.3054,-2.3083,0,0,0,0,0,0,-2.2908,-2.2913,-2.2926,-2.2931,-2.2935,-2.297,-2.2944,-2.2943,-2.2951,-2.2948,-2.2955,-2.2955,-2.295,-2.2978,-2.2982,-2.3001,-2.2965,-2.3048,-2.3051,-2.3053,-2.308,-2.3085,-2.309,0,0,0,0,0,-2.2906,-2.2934,-2.2927,-2.2931,-2.2952,-2.2971,-2.2974,-2.2967,-2.2953,-2.2966,-2.2967,-2.2955,-2.2996,-2.2981,-2.2985,-2.3005,-2.3047,-2.305,-2.3053,-2.3078,-2.3084,-2.309,0,0,0,0,0,0,-2.2932,-2.2934,-2.2927,-2.2957,-2.2964,-2.2967,-2.2984,-2.2974,-2.2986,-2.2983,-2.2975,-2.2977,-2.3005,-2.3008,-2.299,-2.304,-2.3019,-2.3023,-2.3036,-2.3043,-2.3048,-2.3046,-2.2967,0,0,0,0,0,-2.2941,-2.2957,-2.2958,-2.2985,-2.2988,-2.2986,-2.2994,-2.2988,-2.2996,-2.2999,-2.3001,-2.3009,-2.3024,-2.3034,-2.3047,-2.3081,-2.3082,-2.3097,-2.3102,-2.3106,-2.3109,-2.3127,-2.3133,-2.3065,-2.3065,-2.3064,0,0,-2.296,-2.2964,-2.2974,-2.299,-2.2995,-2.3011,-2.2988,-2.3007,-2.3019,-2.3002,-2.3026,-2.3028,-2.3037,-2.3067,-2.308,-2.307,-2.3128,-2.311,-2.3113,-2.3114,-2.313,-2.3137,-2.3143,-2.3067,-2.3066,-2.3066,0,0,-2.3003,-2.3007,-2.3029,-2.3035,-2.3042,-2.3041,-2.3046,-2.3051,-2.3052,-2.3076,-2.3064,-2.3079,-2.3104,-2.3111,-2.3117,-2.3164,-2.3153,-2.3169,-2.3194,-2.3211,-2.3217,-2.3222,-2.3237,-2.3243,-2.3172,-2.3172,-2.3172,0,-2.3026,-2.3049,-2.3042,-2.3061,-2.3069,-2.3054,-2.3077,-2.3083,-2.3095,-2.31,-2.3089,-2.3121,-2.3126,-2.3157,-2.3168,-2.3174,-2.318,-2.3167,-2.3217,-2.3221,-2.3226,-2.3241,-2.3247,-2.3174,-2.3174,-2.3174,-2.3173,0,-2.3077,-2.3093,-2.3111,-2.3122,-2.3132,-2.3152,-2.3149,-2.316,-2.3154,-2.3153,-2.3179,-2.3184,-2.3198,-2.3206,-2.32,-2.3236,-2.323,-2.3218,-2.3197,-2.3234,-2.3248,-2.3254,-2.3176,-2.3176,-2.3175,-2.3175,0,0,-2.3135,-2.3142,-2.3149,-2.3154,-2.3161,-2.3174,-2.3195,-2.3209,-2.3218,-2.3227,-2.3244,-2.3267,-2.3256,-2.3264,-2.3259,-2.3274,-2.331,-2.326,-2.3261,-2.3269,-2.335,-2.3358,-2.3365,-2.3304,-2.3305,-2.3306,-2.3349,0,-2.3177,-2.3211,-2.3206,-2.3239,-2.3255,-2.3242,-2.326,-2.3267,-2.3267,-2.3281,-2.3282,-2.3297,-2.3282,-2.3286,-2.3301,-2.3303,-2.3326,-2.33,-2.3319,-2.332,-2.3316,-2.3372,-2.338,-2.3421,-2.3354,-2.3355,-2.3356,0,-2.323,-2.3241,-2.3276,-2.3281,-2.3287,-2.3303,-2.3315,-2.3329,-2.3337,-2.3336,-2.3345,-2.3338,-2.3359,-2.3339,-2.3368,-2.335,-2.3358,-2.336,-2.3361,-2.3362,-2.3339,-2.3373,-2.3433,-2.3439,-2.3364,-2.3364,-2.3363,0,-2.3268,-2.3291,-2.3315,-2.332,-2.3327,-2.3338,-2.3342,-2.3349,-2.3358,-2.3369,-2.3374,-2.3388,-2.3396,-2.3407,-2.3404,-2.339,-2.3433,-2.3413,-2.3433,-2.3433,-2.3442,-2.3441,-2.3503,-2.3449,-2.3449,-2.3449,-2.3449,0,-2.3315,-2.3336,-2.3332,-2.3346,-2.3371,-2.3365,-2.3389,-2.3391,-2.3398,-2.3413,-2.3403,-2.3417,-2.3413,-2.3428,-2.3426,-2.345,-2.3453,-2.3453,-2.3452,-2.3453,-2.3453,-2.3458,-2.3454,-2.3451,-2.345,-2.345,-2.345,0,-2.3361,-2.3358,-2.3383,-2.3388,-2.339,-2.3407,-2.3412,-2.3426,-2.3426,-2.3445,-2.3449,-2.345,-2.3466,-2.3465,-2.3484,-2.3482,-2.3512,-2.3508,-2.3509,-2.3507,-2.3527,-2.3525,-2.3593,-2.3602,-2.3543,-2.3544,-2.3544,0,-2.339,-2.3406,-2.3413,-2.3422,-2.3426,-2.3441,-2.345,-2.3445,-2.3455,-2.3465,-2.3478,-2.3494,-2.3506,-2.3533,-2.3535,-2.355,-2.3546,-2.3569,-2.3548,-2.3549,-2.3545,-2.3544,-2.3545,-2.3573,-2.3573,-2.3574,-2.3574,0,-2.3442,-2.344,-2.3453,-2.3465,-2.3476,-2.3486,-2.3494,-2.3503,-2.3499,-2.3511,-2.3527,-2.3537,-2.3556,-2.3571,-2.3585,-2.359,-2.3581,-2.3581,-2.3586,-2.3587,-2.3586,-2.3586,-2.3519,-2.3579,-2.3579,-2.3578,-2.3578,-2.3578,-2.348,-2.3494,-2.35,-2.3515,-2.3521,-2.3529,-2.3543,-2.3544,-2.3558,-2.3572,-2.3569,-2.3588,-2.3596,-2.3614,-2.362,-2.3635,-2.3626,-2.3634,-2.3636,-2.3638,-2.364,-2.3585,-2.3637,-2.3637,-2.3637,-2.3637,-2.3637,0,-2.3531,-2.3535,-2.3548,-2.356,-2.3572,-2.3563,-2.3573,-2.3583,-2.3599,-2.3607,-2.3619,-2.3639,-2.3654,-2.3658,-2.3673,-2.3684,-2.368,-2.3688,-2.3686,-2.3687,-2.3647,-2.364,-2.369,-2.369,-2.369,-2.369,-2.369,-2.369,-2.3559,-2.3581,-2.358,-2.3606,-2.361,-2.3627,-2.3634,-2.3642,-2.3648,-2.367,-2.3682,-2.3684,-2.3691,-2.3706,-2.372,-2.3721,-2.3726,-2.3735,-2.3734,-2.3696,-2.369,-2.3685,-2.3679,-2.3736,-2.3737,-2.3774,-2.3774,-2.3774]},{"header":{"parameterUnit":"m.s-1","parameterCategory":1,"la1":30.2991,"la2":30.254,"lo1":-89.0895,"lo2":-89.0444,"dy":0.0017,"dx":0.0017,"nx":28,"ny":28,"refTime":"2025-04-21T09:00:00:Z","depth":0,"parameterNumber":3,"parameterNumberName":"V-component_of_WINDS"},"data":[0,0,0,0,0,0,0,0,0,0,0,0,0,0,0,0,0,0,0,0,0,0,0,0,0,0,0,0,0,0,0,0,0,0,0,0,0,0,0,0,0,0,0,0,0,0,0,0,0,0,0,0,0,0,0,0,0,0,3.991,3.991,0,3.9938,3.9939,3.9939,3.9928,3.9927,3.9926,3.9926,3.9952,3.9954,3.9955,0,0,0,0,0,0,0,0,0,0,0,0,0,3.9844,3.9845,3.991,3.991,3.991,3.9938,3.9939,3.9939,3.9928,3.9927,3.9926,3.9925,3.9952,3.9953,3.9955,0,0,0,0,0,0,0,0,0,0,0,0,0,3.9872,3.9845,3.991,3.9908,3.9908,3.9938,3.9939,3.9939,3.9928,3.9927,3.9926,3.9925,3.9951,3.9953,3.9955,3.9987,0,0,3.9961,3.9962,0,0,0,0,0,0,0,0,3.9871,3.9875,3.9908,3.9908,3.9909,3.9928,3.9925,3.9955,3.9928,3.992,3.9926,3.9925,3.9945,3.9947,3.9955,3.9988,3.999,3.9961,3.9963,3.9963,3.9964,0,0,0,0,0,0,0,3.9869,3.9873,3.9921,3.9909,3.9909,3.9906,3.9909,3.9931,3.9938,3.9921,3.992,3.9924,3.9945,3.9953,3.9955,3.999,3.9961,3.9963,3.9964,3.9965,4.0052,4.0053,0,0,0,0,0,0,3.9867,3.9872,3.992,3.9922,3.9887,3.9908,3.9911,3.9923,3.9938,3.9939,3.9925,3.9923,3.995,3.9953,3.9956,3.9996,3.9963,3.9965,3.9966,4.0051,4.0053,4.0054,0,0,0,0,0,0,3.9865,3.9871,3.9919,3.9897,3.9902,3.991,3.9923,3.9924,3.9932,3.994,3.9941,3.9932,3.9949,3.9953,3.998,3.9996,3.9966,3.9968,4.005,4.0052,4.0053,4.0074,0,0,0,0,0,0,3.9864,3.9871,3.9883,3.9897,3.9904,3.9943,3.9924,3.9925,3.9936,3.9934,3.9947,3.9948,3.9949,3.9977,3.9982,3.9998,3.997,4.0049,4.0051,4.0053,4.0072,4.0076,4.008,0,0,0,0,0,3.9861,3.9887,3.9884,3.989,3.992,3.9944,3.9947,3.9948,3.9937,3.995,3.9955,3.9948,3.9994,3.998,3.9985,4.0003,4.0048,4.005,4.0053,4.007,4.0075,4.0079,0,0,0,0,0,0,3.9874,3.9889,3.9886,3.9917,3.9929,3.9942,3.9957,3.9953,3.9968,3.9966,3.9966,3.9969,3.9996,4.0002,3.9986,4.0035,4.0019,4.0023,4.003,4.0035,4.0039,4.0037,3.9971,0,0,0,0,0,3.988,3.9899,3.9911,3.9937,3.9944,3.995,3.996,3.996,3.9972,3.9977,3.9985,3.9996,4.0014,4.0025,4.0041,4.0073,4.0075,4.0087,4.0091,4.0094,4.0097,4.0116,4.0121,4.0062,4.0062,4.0062,0,0,3.9894,3.9904,3.9916,3.994,3.995,3.9969,3.9954,3.9975,3.9989,3.998,4.0006,4.0012,4.0025,4.0055,4.0068,4.006,4.0115,4.0098,4.01,4.0101,4.0119,4.0124,4.0129,4.0064,4.0064,4.0063,0,0,3.9928,3.9938,3.9962,3.9972,3.9987,3.9991,3.9997,4.0011,4.0015,4.0041,4.0035,4.0052,4.0081,4.0091,4.01,4.014,4.0134,4.0145,4.0165,4.0183,4.0188,4.0192,4.0207,4.0212,4.0148,4.0148,4.0148,0,3.9942,3.9972,3.9974,3.9996,4.0007,4.0001,4.0025,4.0034,4.0054,4.0061,4.0053,4.009,4.0098,4.0131,4.0141,4.0148,4.0155,4.0143,4.0187,4.0191,4.0195,4.0209,4.0215,4.0149,4.0149,4.0149,4.0149,0,3.9989,4.001,4.0027,4.0048,4.0061,4.0083,4.0088,4.0101,4.01,4.0105,4.0132,4.0142,4.0161,4.0168,4.0167,4.0201,4.0196,4.0187,4.0171,4.0202,4.0215,4.0221,4.0151,4.0151,4.015,4.015,0,0,4.0031,4.0054,4.006,4.007,4.0087,4.0103,4.0126,4.0145,4.0156,4.017,4.0189,4.0215,4.0207,4.0217,4.0217,4.0233,4.0265,4.0222,4.0222,4.023,4.0303,4.031,4.0316,4.0261,4.0262,4.0263,4.0303,0,4.0068,4.0109,4.0111,4.0148,4.0168,4.0163,4.0183,4.0195,4.0201,4.0217,4.0223,4.0241,4.023,4.0236,4.0251,4.0257,4.0279,4.0255,4.0278,4.0279,4.0276,4.0323,4.033,4.0367,4.0308,4.0308,4.0309,0,4.0115,4.0132,4.0171,4.0187,4.0195,4.0213,4.0232,4.0248,4.0262,4.0265,4.0277,4.0275,4.0298,4.0282,4.0313,4.0297,4.0306,4.0311,4.0312,4.0315,4.0296,4.0327,4.0379,4.0384,4.0317,4.0317,4.0316,0,4.0143,4.0175,4.0203,4.0212,4.0231,4.0244,4.0252,4.0265,4.0277,4.0293,4.0301,4.0319,4.0329,4.0342,4.0345,4.0333,4.0377,4.0361,4.038,4.038,4.039,4.0389,4.0444,4.0396,4.0396,4.0395,4.0395,0,4.0183,4.0208,4.0216,4.0234,4.0261,4.0264,4.029,4.0298,4.031,4.0328,4.0325,4.0342,4.0344,4.0362,4.0364,4.039,4.0394,4.0397,4.0398,4.0398,4.0398,4.0404,4.0402,4.0397,4.0397,4.0396,4.0396,0,4.0219,4.0226,4.0256,4.0272,4.0277,4.0296,4.0309,4.0326,4.0331,4.0354,4.036,4.0368,4.0389,4.0393,4.0417,4.0419,4.045,4.0448,4.0446,4.0446,4.0465,4.0464,4.0527,4.0535,4.0481,4.0481,4.0482,0,4.0244,4.0263,4.0282,4.0295,4.0304,4.0324,4.0337,4.034,4.0353,4.0372,4.0386,4.0407,4.0423,4.0457,4.0464,4.0483,4.0481,4.0502,4.0484,4.0484,4.0482,4.0481,4.0483,4.0505,4.0506,4.0506,4.0507,0,4.0289,4.0292,4.0311,4.0332,4.0347,4.0363,4.0378,4.0389,4.0394,4.0409,4.0431,4.0444,4.047,4.049,4.0509,4.0517,4.0513,4.0513,4.0518,4.0519,4.0517,4.0519,4.0456,4.0511,4.0511,4.051,4.051,4.051,4.0321,4.0338,4.0354,4.0376,4.0388,4.0402,4.0419,4.0427,4.0446,4.0468,4.0469,4.0493,4.0507,4.0532,4.0541,4.056,4.0553,4.0561,4.0563,4.0565,4.0567,4.0514,4.0563,4.0563,4.0563,4.0563,4.0562,0,4.0366,4.0377,4.0396,4.0419,4.0436,4.0432,4.0449,4.0463,4.0484,4.0499,4.0516,4.0541,4.0561,4.0571,4.0591,4.0604,4.0603,4.0609,4.0608,4.061,4.0571,4.0565,4.061,4.061,4.061,4.061,4.061,4.061,4.0391,4.0421,4.0426,4.0461,4.0471,4.0495,4.0505,4.0519,4.053,4.0559,4.0577,4.0583,4.0596,4.0617,4.0635,4.0638,4.0645,4.0653,4.0654,4.0618,4.0613,4.0608,4.0602,4.0654,4.0654,4.0691,4.0692,4.0692]}]]